TimeCST,TemperatureF,Dew PointF,Humidity,Sea Level PressureIn,VisibilityMPH,Wind Direction,Wind SpeedMPH,Gust SpeedMPH,PrecipitationIn,Events,Conditions,WindDirDegrees,DateUTC
12:31 AM,19.4,17.6,93,30.19,2.0,Calm,Calm,-,N/A,,Clear,0,2012-12-27 06:31:00
12:41 AM,19.4,17.6,93,30.19,5.0,NNW,3.5,-,N/A,,Clear,330,2012-12-27 06:41:00
12:56 AM,19.0,18.1,96,30.18,6.0,North,3.5,-,N/A,,Clear,10,2012-12-27 06:56:00
1:56 AM,20.1,19.0,96,30.20,10.0,NNW,5.8,-,N/A,,Clear,330,2012-12-27 07:56:00
2:56 AM,18.1,17.1,96,30.20,7.0,North,4.6,-,N/A,,Clear,350,2012-12-27 08:56:00
3:40 AM,19.4,17.6,93,30.19,1.8,NNW,4.6,-,N/A,,Clear,340,2012-12-27 09:40:00
3:47 AM,19.4,17.6,93,30.19,3.0,NNW,5.8,-,N/A,,Clear,340,2012-12-27 09:47:00
3:56 AM,18.1,17.1,96,30.20,6.0,NNW,5.8,-,N/A,,Clear,330,2012-12-27 09:56:00
4:36 AM,19.4,17.6,93,30.18,1.8,NNW,4.6,-,N/A,,Clear,340,2012-12-27 10:36:00
4:46 AM,17.6,17.6,100,30.19,3.0,NNW,4.6,-,N/A,,Clear,330,2012-12-27 10:46:00
4:56 AM,18.1,17.1,96,30.20,6.0,NNW,4.6,-,N/A,,Clear,330,2012-12-27 10:56:00
5:36 AM,17.6,15.8,93,30.20,4.0,NW,4.6,-,N/A,,Clear,320,2012-12-27 11:36:00
6:56 AM,16.2,14.0,91,30.21,8.0,NE,3.5,-,N/A,,Clear,40,2012-12-27 12:56:00
7:56 AM,19.0,18.1,96,30.21,8.0,Calm,Calm,-,N/A,,Clear,0,2012-12-27 13:56:00
8:56 AM,20.1,19.0,96,30.23,8.0,Calm,Calm,-,N/A,,Clear,0,2012-12-27 14:56:00
9:56 AM,24.1,24.1,100,30.25,9.0,Calm,Calm,-,N/A,,Clear,0,2012-12-27 15:56:00
10:56 AM,25.2,25.2,100,30.25,9.0,NNW,3.5,-,N/A,,Clear,330,2012-12-27 16:56:00
11:56 AM,27.1,27.1,100,30.20,10.0,Calm,Calm,-,N/A,,Clear,0,2012-12-27 17:56:00
2:56 PM,32.0,26.1,79,30.14,10.0,South,5.8,-,N/A,,Clear,190,2012-12-27 20:56:00
3:56 PM,31.1,26.1,82,30.13,10.0,North,-9999.0,-,N/A,,Clear,0,2012-12-27 21:56:00
4:56 PM,29.1,26.1,88,30.12,10.0,East,5.8,-,N/A,,Partly Cloudy,80,2012-12-27 22:56:00
5:14 PM,28.4,24.8,86,30.11,10.0,East,4.6,-,N/A,,Mostly Cloudy,90,2012-12-27 23:14:00
5:56 PM,27.1,25.2,92,30.12,10.0,ENE,6.9,-,N/A,,Overcast,60,2012-12-27 23:56:00
6:17 PM,26.6,24.8,93,30.10,10.0,NE,6.9,-,N/A,,Scattered Clouds,50,2012-12-28 00:17:00
6:56 PM,27.1,25.2,92,30.11,10.0,ENE,5.8,-,N/A,,Clear,70,2012-12-28 00:56:00
8:56 PM,25.2,24.1,96,30.09,5.0,ENE,4.6,-,N/A,,Clear,60,2012-12-28 02:56:00
9:56 PM,24.1,24.1,100,30.09,5.0,NNE,5.8,-,N/A,,Clear,20,2012-12-28 03:56:00
10:56 PM,27.1,26.1,96,30.09,8.0,North,3.5,-,N/A,,Overcast,10,2012-12-28 04:56:00
11:56 PM,28.0,27.1,96,30.08,9.0,North,3.5,-,N/A,,Overcast,360,2012-12-28 05:56:00